IRIDIUM 33 DEB, 35797

Orbit data source: Space-Track

IRIDIUM 33 DEB, 35797 is space debris in LEO originally from a launch on Sun, 14 Sep 1997 UTC launched from the Tyuratam Missile And Space Complex (TTMTR). The debris from Iridium 33, an American commercial communications satellite, has been tracked extensively since its accidental collision with the defunct Russian satellite Cosmos 2251 in 2009. This event, occurring at high speed in low Earth orbit (LEO), generated thousands of pieces of space debris, significantly increasing the risk of further collisions. The Iridium 33 debris cloud has impacted space traffic management and orbital debris mitigation strategies, making it a subject of ongoing study in space situational awareness.

Loading next visibility...
Identifier
35797, 1997-051SF
Orbit
LEO
Country
Flag of USUS
Related business
Manufacturer
Unknown
Mission
Spacecraft
Bus & Motor
Unknown
Mass
Unknown
Launch date (UTC)
1997-09-14 (28 years ago)
Launch vehicle
Unknown
Launch site
Tyuratam Missile And Space Complex (TTMTR)
Object type
Payload
Rocket body
Debris
Shape & HBR
Unknown shape, 0.1 m
Radar Cross Section
Small (<0.1 m²)

Expand to show TLE details & history
Last TLE update: 10 hours ago

TLE from 10 hours ago
0 IRIDIUM 33 DEB
1 35797U 97051SF  26038.03061837  .00018107  00000-0  21216-2 0  9991
2 35797  86.3366 304.0779 0011505 338.8372  21.2374 14.84873711881753
Epoch: 2026-02-07T00:44Z
TLE epoch observation values (Epoch: 2026-02-07T00:44:05.427Z)
Latitude
-0.00002°
Longitude
155.8953°
Altitude
609.605 km
Speed
7.558 km/s
True Right ascension
20h 16m 18s
True Declination
0° 00' 00"
Sunlit
Object was in daylight at epoch
Visualization orbit readout
Latitude
Unknown
Longitude
Unknown
Altitude
Unknown
Speed
Unknown
Apparent Right ascension
Unknown
Apparent Declination
Unknown
Sunlit
N/A
Visualization observer readout
Local Sidereal Time
12:54:16
Azimuth
Unknown
Elevation
Unknown
Doppler factor
Unknown
Orbital elements
Apogee altitude
618.918 km
Perigee altitude
602.836 km
Semi-major axis
6,989.014 km
Eccentricity
0.00115
Inclination
86.3366°
RAAN
304.0779°
Arg. of periapsis
338.8372°
True anomaly
21.28522°
Mean anomaly
21.2374°
Eccentric anomaly
21.2613°
Mean motion
3.71466 °/min
Orbital period
96.91 mins
BSTAR
0.0021216
Loading maneuver chart data...
Computing Atmospheric mass density...

Documentation

Showing up to 5 results
|